Harrison, AR

10:46 AM CDT on March 26, 2017 (GMT -0500)
Boone County

Weather History for KHRO - February, 2011

Change the Weather History Date:

Tuesday, February 8, 2011

  Actual Average Record
Temperature  
Mean Temperature 21 °F 39 °F  
Max Temperature 26 °F 49 °F 74 °F (1943)
Min Temperature 16 °F 29 °F -7 °F (1933)
Degree Days  
Heating Degree Days 44 26  
Month to date heating degree days 334 213  
Since 1 July heating degree days 2707 2699  
Cooling Degree Days 0 0  
Month to date cooling degree days 0 0  
Year to date cooling degree days 0 0  
Moisture  
Dew Point 14 °F    
Average Humidity 76    
Maximum Humidity 92    
Minimum Humidity 59    
Precipitation  
Precipitation 0.00 in 0.09 in 2.50 in (1931)
Month to date precipitation 1.32 0.70  
Year to date precipitation 1.57 3.26  
Snow  
Snow 0.00 in 0.10 in 9.00 in (1919)
Month to date snowfall 6.6 1.2  
Since 1 July snowfall 9.4 7.2  
Snow Depth 0.00 in    
Sea Level Pressure  
Sea Level Pressure 30.33 in    
Wind  
Wind Speed 6 mph (NE)    
Max Wind Speed 14 mph    
Max Gust Speed 17 mph    
Visibility 10 miles    
Events      
T = Trace of Precipitation, MM = Missing Value Source: NWS Daily Summary

Daily Weather History Graph

Daily Weather History Graph

Search for Another Location

Airport or City:

Trip Planner

Search our weather history database for the weather conditions in past years. The results will help you decide how hot, cold, wet, or windy it might be!

Date:

Astronomy

Feb. 08, 2011 Rise Set
Actual Time 7:07 AM CST 5:46 PM CST
Civil Twilight 6:41 AM CST 6:12 PM CST
Nautical Twilight 6:10 AM CST 6:43 PM CST
Astronomical Twilight 5:40 AM CST 7:13 PM CST
Moon 9:28 AM CST (2/8) 11:13 PM CST (2/8)
Length of Visible Light 11h 31m
Length of Day
10h 38m
Waxing Crescent, 26% of the Moon is Illuminated
Feb 8
Waxing Crescent
Feb 11
First Quarter
Feb 18
Full
Feb 24
Last Quarter
Mar 4
New

Hourly Weather History & Observations

Time (CST) Temp. Windchill Dew Point Humidity Pressure Visibility Wind Dir Wind Speed Gust Speed Precip Events Conditions
12:53 AM 21.9 °F - 17.1 °F 82% 30.23 in 10.0 mi Calm Calm - N/A   Partly Cloudy
1:53 AM 21.2 °F - 17.6 °F 86% 30.19 in 10.0 mi Calm Calm - N/A   Clear
2:53 AM 19.9 °F - 16.0 °F 85% 30.24 in 10.0 mi Calm Calm - N/A   Clear
3:53 AM 19.0 °F 13.9 °F 16.0 °F 88% 30.28 in 10.0 mi NW 3.5 mph - N/A   Clear
4:53 AM 19.0 °F - 15.1 °F 85% 30.29 in 10.0 mi Calm Calm - N/A   Clear
5:53 AM 15.8 °F - 14.0 °F 93% 30.28 in 10.0 mi Calm Calm - N/A   Clear
6:53 AM 18.0 °F - 15.1 °F 88% 30.37 in 10.0 mi Calm Calm - N/A   Partly Cloudy
7:53 AM 19.9 °F - 16.0 °F 85% 30.40 in 9.0 mi Calm Calm - N/A   Overcast
8:53 AM 21.0 °F 13.4 °F 16.0 °F 81% 30.41 in 10.0 mi NNE 5.8 mph - N/A   Overcast
9:53 AM 21.9 °F 11.0 °F 16.0 °F 78% 30.43 in 10.0 mi NNE 10.4 mph - N/A   Partly Cloudy
10:53 AM 23.0 °F 13.9 °F 15.8 °F 74% 30.37 in 10.0 mi NNE 8.1 mph - N/A   Partly Cloudy
11:53 AM 25.0 °F 15.5 °F 17.1 °F 72% 30.42 in 10.0 mi North 9.2 mph - N/A   Clear
12:53 PM 24.1 °F 17.0 °F 15.1 °F 69% 30.39 in 10.0 mi ENE 5.8 mph - N/A   Mostly Cloudy
1:53 PM 24.1 °F 15.2 °F 12.9 °F 62% 30.36 in 10.0 mi East 8.1 mph - N/A   Overcast
2:53 PM 24.1 °F 15.2 °F 14.0 °F 65% 30.34 in 10.0 mi NE 8.1 mph - N/A   Overcast
3:53 PM 24.1 °F 13.7 °F 12.9 °F 62% 30.31 in 10.0 mi ENE 10.4 mph - N/A   Overcast
4:53 PM 25.0 °F 14.2 °F 12.9 °F 60% 30.30 in 10.0 mi ESE 11.5 mph - N/A   Overcast
5:53 PM 25.0 °F 16.3 °F 14.0 °F 63% 30.29 in 10.0 mi East 8.1 mph - N/A   Overcast
6:53 PM 25.0 °F 15.5 °F 14.0 °F 63% 30.30 in 10.0 mi East 9.2 mph - N/A   Mostly Cloudy
7:53 PM 25.0 °F 14.2 °F 14.0 °F 63% 30.29 in 10.0 mi East 11.5 mph - N/A   Overcast
8:53 PM 25.0 °F 16.3 °F 14.0 °F 63% 30.31 in 10.0 mi ENE 8.1 mph - N/A   Overcast
9:53 PM 24.1 °F 16.0 °F 12.9 °F 62% 30.35 in 10.0 mi NE 6.9 mph - N/A   Overcast
10:45 PM 23.0 °F 14.7 °F 12.2 °F 63% 30.31 in 10.0 mi NNE 6.9 mph - N/A   Overcast
10:53 PM 23.0 °F 14.7 °F 10.9 °F 60% 30.36 in 10.0 mi NNE 6.9 mph - N/A   Overcast
11:05 PM 23.0 °F 13.1 °F 10.4 °F 59% 30.31 in 10.0 mi North 9.2 mph - N/A   Overcast
11:53 PM 21.9 °F 13.4 °F 10.0 °F 60% 30.32 in 10.0 mi ENE 6.9 mph - N/A   Overcast